<?xml version="1.0" encoding="UTF-8" standalone="no" ?>
<gpx xmlns="http://www.topografix.com/GPX/1/1" creator="MapSource 6.11.6" version="1.1" xmlns:xsi="http://www.w3.org/2001/XMLSchema-instance" xsi:schemaLocation="http://www.topografix.com/GPX/1/1 http://www.topografix.com/GPX/1/1/gpx.xsd">

  <metadata>
    <link href="http://www.garmin.com">
      <text>Garmin International</text>
    </link>
    <time>2009-11-07T15:38:52Z</time>
    <bounds maxlat="50.567075" maxlon="6.367044" minlat="50.541745" minlon="6.347759"/>
  </metadata>

  <trk>
    <name>Erkensruhr-Hirschrott</name>
    <extensions>
      <gpxx:TrackExtension xmlns:gpxx="http://www.garmin.com/xmlschemas/GpxExtensions/v3" xmlns:xsi="http://www.w3.org/2001/XMLSchema-instance" xsi:schemaLocation="http://www.garmin.com/xmlschemas/GpxExtensions/v3 http://www.garmin.com/xmlschemas/GpxExtensions/v3/GpxExtensionsv3.xsd">
        <gpxx:DisplayColor>White</gpxx:DisplayColor>
      </gpxx:TrackExtension>
    </extensions>
    <trkseg>
      <trkpt lat="50.564901" lon="6.361985">
        <ele>0.000000</ele>
        <time>2009-10-13T16:53:40Z</time>
      </trkpt>
      <trkpt lat="50.564894" lon="6.361840">
        <ele>0.000000</ele>
        <time>2009-10-13T16:53:40Z</time>
      </trkpt>
      <trkpt lat="50.564908" lon="6.361363">
        <ele>0.000000</ele>
        <time>2009-10-13T16:53:40Z</time>
      </trkpt>
      <trkpt lat="50.564792" lon="6.361138">
        <ele>0.000000</ele>
        <time>2009-10-13T16:53:40Z</time>
      </trkpt>
      <trkpt lat="50.564782" lon="6.360971">
        <ele>0.000000</ele>
        <time>2009-10-13T16:53:40Z</time>
      </trkpt>
      <trkpt lat="50.564969" lon="6.360612">
        <ele>0.000000</ele>
        <time>2009-10-13T16:53:40Z</time>
      </trkpt>
      <trkpt lat="50.565051" lon="6.360515">
        <ele>0.000000</ele>
        <time>2009-10-13T16:53:40Z</time>
      </trkpt>
      <trkpt lat="50.565167" lon="6.360526">
        <ele>0.000000</ele>
        <time>2009-10-13T16:53:40Z</time>
      </trkpt>
      <trkpt lat="50.565473" lon="6.360923">
        <ele>0.000000</ele>
        <time>2009-10-13T16:53:40Z</time>
      </trkpt>
      <trkpt lat="50.566080" lon="6.361320">
        <ele>0.000000</ele>
        <time>2009-10-13T16:53:40Z</time>
      </trkpt>
      <trkpt lat="50.566543" lon="6.361567">
        <ele>0.000000</ele>
        <time>2009-10-13T16:53:40Z</time>
      </trkpt>
      <trkpt lat="50.566959" lon="6.361856">
        <ele>0.000000</ele>
        <time>2009-10-13T16:53:40Z</time>
      </trkpt>
      <trkpt lat="50.567075" lon="6.361867">
        <ele>0.000000</ele>
        <time>2009-10-13T16:53:40Z</time>
      </trkpt>
      <trkpt lat="50.566959" lon="6.361696">
        <ele>0.000000</ele>
        <time>2009-10-13T16:53:40Z</time>
      </trkpt>
      <trkpt lat="50.566857" lon="6.361341">
        <ele>0.000000</ele>
        <time>2009-10-13T16:53:40Z</time>
      </trkpt>
      <trkpt lat="50.566700" lon="6.361105">
        <ele>0.000000</ele>
        <time>2009-10-13T16:53:40Z</time>
      </trkpt>
      <trkpt lat="50.566557" lon="6.361009">
        <ele>0.000000</ele>
        <time>2009-10-13T16:53:40Z</time>
      </trkpt>
      <trkpt lat="50.566503" lon="6.360912">
        <ele>0.000000</ele>
        <time>2009-10-13T16:53:40Z</time>
      </trkpt>
      <trkpt lat="50.566373" lon="6.360633">
        <ele>0.000000</ele>
        <time>2009-10-13T16:53:40Z</time>
      </trkpt>
      <trkpt lat="50.566145" lon="6.359975">
        <ele>0.000000</ele>
        <time>2009-10-13T16:53:40Z</time>
      </trkpt>
      <trkpt lat="50.566053" lon="6.359539">
        <ele>0.000000</ele>
        <time>2009-10-13T16:53:40Z</time>
      </trkpt>
      <trkpt lat="50.566053" lon="6.359088">
        <ele>0.000000</ele>
        <time>2009-10-13T16:53:40Z</time>
      </trkpt>
      <trkpt lat="50.566094" lon="6.358852">
        <ele>0.000000</ele>
        <time>2009-10-13T16:53:40Z</time>
      </trkpt>
      <trkpt lat="50.566182" lon="6.358606">
        <ele>0.000000</ele>
        <time>2009-10-13T16:53:40Z</time>
      </trkpt>
      <trkpt lat="50.565753" lon="6.358423">
        <ele>0.000000</ele>
        <time>2009-10-13T16:53:40Z</time>
      </trkpt>
      <trkpt lat="50.565548" lon="6.358348">
        <ele>0.000000</ele>
        <time>2009-10-13T16:53:40Z</time>
      </trkpt>
      <trkpt lat="50.565324" lon="6.358520">
        <ele>0.000000</ele>
        <time>2009-10-13T16:53:40Z</time>
      </trkpt>
      <trkpt lat="50.565249" lon="6.358531">
        <ele>0.000000</ele>
        <time>2009-10-13T16:53:40Z</time>
      </trkpt>
      <trkpt lat="50.565010" lon="6.358101">
        <ele>0.000000</ele>
        <time>2009-10-13T16:53:40Z</time>
      </trkpt>
      <trkpt lat="50.564335" lon="6.356331">
        <ele>0.000000</ele>
        <time>2009-10-13T16:53:40Z</time>
      </trkpt>
      <trkpt lat="50.564213" lon="6.355956">
        <ele>0.000000</ele>
        <time>2009-10-13T16:53:40Z</time>
      </trkpt>
      <trkpt lat="50.564104" lon="6.355644">
        <ele>0.000000</ele>
        <time>2009-10-13T16:53:40Z</time>
      </trkpt>
      <trkpt lat="50.564042" lon="6.355419">
        <ele>0.000000</ele>
        <time>2009-10-13T16:53:40Z</time>
      </trkpt>
      <trkpt lat="50.563879" lon="6.355119">
        <ele>0.000000</ele>
        <time>2009-10-13T16:53:40Z</time>
      </trkpt>
      <trkpt lat="50.563647" lon="6.354808">
        <ele>0.000000</ele>
        <time>2009-10-13T16:53:40Z</time>
      </trkpt>
      <trkpt lat="50.563409" lon="6.354260">
        <ele>0.000000</ele>
        <time>2009-10-13T16:53:40Z</time>
      </trkpt>
      <trkpt lat="50.563313" lon="6.353477">
        <ele>0.000000</ele>
        <time>2009-10-13T16:53:40Z</time>
      </trkpt>
      <trkpt lat="50.563115" lon="6.352125">
        <ele>0.000000</ele>
        <time>2009-10-13T16:53:40Z</time>
      </trkpt>
      <trkpt lat="50.563129" lon="6.351396">
        <ele>0.000000</ele>
        <time>2009-10-13T16:53:40Z</time>
      </trkpt>
      <trkpt lat="50.563211" lon="6.350849">
        <ele>0.000000</ele>
        <time>2009-10-13T16:53:40Z</time>
      </trkpt>
      <trkpt lat="50.563184" lon="6.350763">
        <ele>0.000000</ele>
        <time>2009-10-13T16:53:40Z</time>
      </trkpt>
      <trkpt lat="50.562727" lon="6.350602">
        <ele>0.000000</ele>
        <time>2009-10-13T16:53:40Z</time>
      </trkpt>
      <trkpt lat="50.562393" lon="6.350849">
        <ele>0.000000</ele>
        <time>2009-10-13T16:53:40Z</time>
      </trkpt>
      <trkpt lat="50.562257" lon="6.350881">
        <ele>0.000000</ele>
        <time>2009-10-13T16:53:40Z</time>
      </trkpt>
      <trkpt lat="50.562100" lon="6.350838">
        <ele>0.000000</ele>
        <time>2009-10-13T16:53:40Z</time>
      </trkpt>
      <trkpt lat="50.561964" lon="6.350720">
        <ele>0.000000</ele>
        <time>2009-10-13T16:53:40Z</time>
      </trkpt>
      <trkpt lat="50.561807" lon="6.350452">
        <ele>0.000000</ele>
        <time>2009-10-13T16:53:40Z</time>
      </trkpt>
      <trkpt lat="50.561534" lon="6.350141">
        <ele>0.000000</ele>
        <time>2009-10-13T16:53:40Z</time>
      </trkpt>
      <trkpt lat="50.561221" lon="6.349572">
        <ele>0.000000</ele>
        <time>2009-10-13T16:53:40Z</time>
      </trkpt>
      <trkpt lat="50.561057" lon="6.349443">
        <ele>0.000000</ele>
        <time>2009-10-13T16:53:40Z</time>
      </trkpt>
      <trkpt lat="50.560975" lon="6.349540">
        <ele>0.000000</ele>
        <time>2009-10-13T16:53:40Z</time>
      </trkpt>
      <trkpt lat="50.560866" lon="6.349958">
        <ele>0.000000</ele>
        <time>2009-10-13T16:53:40Z</time>
      </trkpt>
      <trkpt lat="50.560805" lon="6.350076">
        <ele>0.000000</ele>
        <time>2009-10-13T16:53:40Z</time>
      </trkpt>
      <trkpt lat="50.560737" lon="6.350151">
        <ele>0.000000</ele>
        <time>2009-10-13T16:53:40Z</time>
      </trkpt>
      <trkpt lat="50.560280" lon="6.350280">
        <ele>0.000000</ele>
        <time>2009-10-13T16:53:40Z</time>
      </trkpt>
      <trkpt lat="50.559749" lon="6.350462">
        <ele>0.000000</ele>
        <time>2009-10-13T16:53:40Z</time>
      </trkpt>
      <trkpt lat="50.559496" lon="6.350473">
        <ele>0.000000</ele>
        <time>2009-10-13T16:53:40Z</time>
      </trkpt>
      <trkpt lat="50.559312" lon="6.350355">
        <ele>0.000000</ele>
        <time>2009-10-13T16:53:40Z</time>
      </trkpt>
      <trkpt lat="50.558951" lon="6.350538">
        <ele>0.000000</ele>
        <time>2009-10-13T16:53:40Z</time>
      </trkpt>
      <trkpt lat="50.558692" lon="6.350709">
        <ele>0.000000</ele>
        <time>2009-10-13T16:53:40Z</time>
      </trkpt>
      <trkpt lat="50.558535" lon="6.350892">
        <ele>0.000000</ele>
        <time>2009-10-13T16:53:40Z</time>
      </trkpt>
      <trkpt lat="50.558310" lon="6.351106">
        <ele>0.000000</ele>
        <time>2009-10-13T16:53:40Z</time>
      </trkpt>
      <trkpt lat="50.558045" lon="6.351289">
        <ele>0.000000</ele>
        <time>2009-10-13T16:53:40Z</time>
      </trkpt>
      <trkpt lat="50.557963" lon="6.351439">
        <ele>0.000000</ele>
        <time>2009-10-13T16:53:40Z</time>
      </trkpt>
      <trkpt lat="50.557581" lon="6.351847">
        <ele>0.000000</ele>
        <time>2009-10-13T16:53:40Z</time>
      </trkpt>
      <trkpt lat="50.557322" lon="6.351836">
        <ele>0.000000</ele>
        <time>2009-10-13T16:53:40Z</time>
      </trkpt>
      <trkpt lat="50.557125" lon="6.351825">
        <ele>0.000000</ele>
        <time>2009-10-13T16:53:40Z</time>
      </trkpt>
      <trkpt lat="50.556818" lon="6.351557">
        <ele>0.000000</ele>
        <time>2009-10-13T16:53:40Z</time>
      </trkpt>
      <trkpt lat="50.556450" lon="6.351246">
        <ele>0.000000</ele>
        <time>2009-10-13T16:53:40Z</time>
      </trkpt>
      <trkpt lat="50.556211" lon="6.351085">
        <ele>0.000000</ele>
        <time>2009-10-13T16:53:40Z</time>
      </trkpt>
      <trkpt lat="50.556082" lon="6.351010">
        <ele>0.000000</ele>
        <time>2009-10-13T16:53:40Z</time>
      </trkpt>
      <trkpt lat="50.555973" lon="6.351053">
        <ele>0.000000</ele>
        <time>2009-10-13T16:53:40Z</time>
      </trkpt>
      <trkpt lat="50.555393" lon="6.351342">
        <ele>0.000000</ele>
        <time>2009-10-13T16:53:40Z</time>
      </trkpt>
      <trkpt lat="50.555148" lon="6.351396">
        <ele>0.000000</ele>
        <time>2009-10-13T16:53:40Z</time>
      </trkpt>
      <trkpt lat="50.554882" lon="6.351374">
        <ele>0.000000</ele>
        <time>2009-10-13T16:53:40Z</time>
      </trkpt>
      <trkpt lat="50.554514" lon="6.351235">
        <ele>0.000000</ele>
        <time>2009-10-13T16:53:40Z</time>
      </trkpt>
      <trkpt lat="50.554391" lon="6.351031">
        <ele>0.000000</ele>
        <time>2009-10-13T16:53:40Z</time>
      </trkpt>
      <trkpt lat="50.553989" lon="6.350688">
        <ele>0.000000</ele>
        <time>2009-10-13T16:53:40Z</time>
      </trkpt>
      <trkpt lat="50.553614" lon="6.350259">
        <ele>0.000000</ele>
        <time>2009-10-13T16:53:40Z</time>
      </trkpt>
      <trkpt lat="50.553423" lon="6.349937">
        <ele>0.000000</ele>
        <time>2009-10-13T16:53:40Z</time>
      </trkpt>
      <trkpt lat="50.553314" lon="6.349819">
        <ele>0.000000</ele>
        <time>2009-10-13T16:53:40Z</time>
      </trkpt>
      <trkpt lat="50.553205" lon="6.349862">
        <ele>0.000000</ele>
        <time>2009-10-13T16:53:40Z</time>
      </trkpt>
      <trkpt lat="50.552885" lon="6.350194">
        <ele>0.000000</ele>
        <time>2009-10-13T16:53:40Z</time>
      </trkpt>
      <trkpt lat="50.552605" lon="6.350602">
        <ele>0.000000</ele>
        <time>2009-10-13T16:53:40Z</time>
      </trkpt>
      <trkpt lat="50.552496" lon="6.350977">
        <ele>0.000000</ele>
        <time>2009-10-13T16:53:40Z</time>
      </trkpt>
      <trkpt lat="50.552298" lon="6.351728">
        <ele>0.000000</ele>
        <time>2009-10-13T16:53:40Z</time>
      </trkpt>
      <trkpt lat="50.552210" lon="6.352115">
        <ele>0.000000</ele>
        <time>2009-10-13T16:53:40Z</time>
      </trkpt>
      <trkpt lat="50.552108" lon="6.352361">
        <ele>0.000000</ele>
        <time>2009-10-13T16:53:40Z</time>
      </trkpt>
      <trkpt lat="50.551760" lon="6.352994">
        <ele>0.000000</ele>
        <time>2009-10-13T16:53:40Z</time>
      </trkpt>
      <trkpt lat="50.551433" lon="6.353241">
        <ele>0.000000</ele>
        <time>2009-10-13T16:53:40Z</time>
      </trkpt>
      <trkpt lat="50.551180" lon="6.353413">
        <ele>0.000000</ele>
        <time>2009-10-13T16:53:40Z</time>
      </trkpt>
      <trkpt lat="50.551003" lon="6.353488">
        <ele>0.000000</ele>
        <time>2009-10-13T16:53:40Z</time>
      </trkpt>
      <trkpt lat="50.550840" lon="6.353467">
        <ele>0.000000</ele>
        <time>2009-10-13T16:53:40Z</time>
      </trkpt>
      <trkpt lat="50.550594" lon="6.353220">
        <ele>0.000000</ele>
        <time>2009-10-13T16:53:40Z</time>
      </trkpt>
      <trkpt lat="50.550465" lon="6.353048">
        <ele>0.000000</ele>
        <time>2009-10-13T16:53:40Z</time>
      </trkpt>
      <trkpt lat="50.550246" lon="6.352749">
        <ele>0.000000</ele>
        <time>2009-10-13T16:53:40Z</time>
      </trkpt>
      <trkpt lat="50.550049" lon="6.352501">
        <ele>0.000000</ele>
        <time>2009-10-13T16:53:40Z</time>
      </trkpt>
      <trkpt lat="50.549922" lon="6.352344">
        <ele>0.000000</ele>
        <time>2009-10-13T16:53:40Z</time>
      </trkpt>
      <trkpt lat="50.549742" lon="6.352222">
        <ele>0.000000</ele>
        <time>2009-10-13T16:53:40Z</time>
      </trkpt>
      <trkpt lat="50.549326" lon="6.352082">
        <ele>0.000000</ele>
        <time>2009-10-13T16:53:40Z</time>
      </trkpt>
      <trkpt lat="50.548931" lon="6.352104">
        <ele>0.000000</ele>
        <time>2009-10-13T16:53:40Z</time>
      </trkpt>
      <trkpt lat="50.548748" lon="6.352127">
        <ele>0.000000</ele>
        <time>2009-10-13T16:53:40Z</time>
      </trkpt>
      <trkpt lat="50.548495" lon="6.352168">
        <ele>0.000000</ele>
        <time>2009-10-13T16:53:40Z</time>
      </trkpt>
      <trkpt lat="50.548133" lon="6.352201">
        <ele>0.000000</ele>
        <time>2009-10-13T16:53:40Z</time>
      </trkpt>
      <trkpt lat="50.547963" lon="6.352061">
        <ele>0.000000</ele>
        <time>2009-10-13T16:53:40Z</time>
      </trkpt>
      <trkpt lat="50.547867" lon="6.351868">
        <ele>0.000000</ele>
        <time>2009-10-13T16:53:40Z</time>
      </trkpt>
      <trkpt lat="50.547701" lon="6.351551">
        <ele>0.000000</ele>
        <time>2009-10-13T16:53:40Z</time>
      </trkpt>
      <trkpt lat="50.547520" lon="6.351214">
        <ele>0.000000</ele>
        <time>2009-10-13T16:53:40Z</time>
      </trkpt>
      <trkpt lat="50.547315" lon="6.350935">
        <ele>0.000000</ele>
        <time>2009-10-13T16:53:40Z</time>
      </trkpt>
      <trkpt lat="50.546845" lon="6.350387">
        <ele>0.000000</ele>
        <time>2009-10-13T16:53:40Z</time>
      </trkpt>
      <trkpt lat="50.546579" lon="6.350033">
        <ele>0.000000</ele>
        <time>2009-10-13T16:53:40Z</time>
      </trkpt>
      <trkpt lat="50.546463" lon="6.350119">
        <ele>0.000000</ele>
        <time>2009-10-13T16:53:40Z</time>
      </trkpt>
      <trkpt lat="50.546231" lon="6.349647">
        <ele>0.000000</ele>
        <time>2009-10-13T16:53:40Z</time>
      </trkpt>
      <trkpt lat="50.545774" lon="6.348746">
        <ele>0.000000</ele>
        <time>2009-10-13T16:53:40Z</time>
      </trkpt>
      <trkpt lat="50.545399" lon="6.348016">
        <ele>0.000000</ele>
        <time>2009-10-13T16:53:40Z</time>
      </trkpt>
      <trkpt lat="50.545249" lon="6.347759">
        <ele>0.000000</ele>
        <time>2009-10-13T16:53:40Z</time>
      </trkpt>
      <trkpt lat="50.545167" lon="6.347791">
        <ele>0.000000</ele>
        <time>2009-10-13T16:53:40Z</time>
      </trkpt>
      <trkpt lat="50.545113" lon="6.347941">
        <ele>0.000000</ele>
        <time>2009-10-13T16:53:40Z</time>
      </trkpt>
      <trkpt lat="50.545399" lon="6.348574">
        <ele>0.000000</ele>
        <time>2009-10-13T16:53:40Z</time>
      </trkpt>
      <trkpt lat="50.545577" lon="6.348960">
        <ele>0.000000</ele>
        <time>2009-10-13T16:53:40Z</time>
      </trkpt>
      <trkpt lat="50.545669" lon="6.349195">
        <ele>0.000000</ele>
        <time>2009-10-13T16:53:40Z</time>
      </trkpt>
      <trkpt lat="50.545911" lon="6.349808">
        <ele>0.000000</ele>
        <time>2009-10-13T16:53:40Z</time>
      </trkpt>
      <trkpt lat="50.546050" lon="6.350194">
        <ele>0.000000</ele>
        <time>2009-10-13T16:53:40Z</time>
      </trkpt>
      <trkpt lat="50.546330" lon="6.350747">
        <ele>0.000000</ele>
        <time>2009-10-13T16:53:40Z</time>
      </trkpt>
      <trkpt lat="50.546831" lon="6.351616">
        <ele>0.000000</ele>
        <time>2009-10-13T16:53:40Z</time>
      </trkpt>
      <trkpt lat="50.547032" lon="6.352023">
        <ele>0.000000</ele>
        <time>2009-10-13T16:53:40Z</time>
      </trkpt>
      <trkpt lat="50.547121" lon="6.352233">
        <ele>0.000000</ele>
        <time>2009-10-13T16:53:40Z</time>
      </trkpt>
      <trkpt lat="50.547261" lon="6.352614">
        <ele>0.000000</ele>
        <time>2009-10-13T16:53:40Z</time>
      </trkpt>
      <trkpt lat="50.547445" lon="6.352935">
        <ele>0.000000</ele>
        <time>2009-10-13T16:53:40Z</time>
      </trkpt>
      <trkpt lat="50.547697" lon="6.353306">
        <ele>0.000000</ele>
        <time>2009-10-13T16:53:40Z</time>
      </trkpt>
      <trkpt lat="50.548051" lon="6.353590">
        <ele>0.000000</ele>
        <time>2009-10-13T16:53:40Z</time>
      </trkpt>
      <trkpt lat="50.548256" lon="6.353633">
        <ele>0.000000</ele>
        <time>2009-10-13T16:53:40Z</time>
      </trkpt>
      <trkpt lat="50.548491" lon="6.353638">
        <ele>0.000000</ele>
        <time>2009-10-13T16:53:40Z</time>
      </trkpt>
      <trkpt lat="50.548692" lon="6.353687">
        <ele>0.000000</ele>
        <time>2009-10-13T16:53:40Z</time>
      </trkpt>
      <trkpt lat="50.548726" lon="6.353783">
        <ele>0.000000</ele>
        <time>2009-10-13T16:53:40Z</time>
      </trkpt>
      <trkpt lat="50.548668" lon="6.353912">
        <ele>0.000000</ele>
        <time>2009-10-13T16:53:40Z</time>
      </trkpt>
      <trkpt lat="50.548593" lon="6.353912">
        <ele>0.000000</ele>
        <time>2009-10-13T16:53:40Z</time>
      </trkpt>
      <trkpt lat="50.548382" lon="6.353826">
        <ele>0.000000</ele>
        <time>2009-10-13T16:53:40Z</time>
      </trkpt>
      <trkpt lat="50.548089" lon="6.353847">
        <ele>0.000000</ele>
        <time>2009-10-13T16:53:40Z</time>
      </trkpt>
      <trkpt lat="50.547850" lon="6.353826">
        <ele>0.000000</ele>
        <time>2009-10-13T16:53:40Z</time>
      </trkpt>
      <trkpt lat="50.547738" lon="6.353772">
        <ele>0.000000</ele>
        <time>2009-10-13T16:53:40Z</time>
      </trkpt>
      <trkpt lat="50.547571" lon="6.353606">
        <ele>0.000000</ele>
        <time>2009-10-13T16:53:40Z</time>
      </trkpt>
      <trkpt lat="50.547468" lon="6.353488">
        <ele>0.000000</ele>
        <time>2009-10-13T16:53:40Z</time>
      </trkpt>
      <trkpt lat="50.547383" lon="6.353445">
        <ele>0.000000</ele>
        <time>2009-10-13T16:53:40Z</time>
      </trkpt>
      <trkpt lat="50.547349" lon="6.353509">
        <ele>0.000000</ele>
        <time>2009-10-13T16:53:40Z</time>
      </trkpt>
      <trkpt lat="50.547363" lon="6.353627">
        <ele>0.000000</ele>
        <time>2009-10-13T16:53:40Z</time>
      </trkpt>
      <trkpt lat="50.547543" lon="6.353821">
        <ele>0.000000</ele>
        <time>2009-10-13T16:53:40Z</time>
      </trkpt>
      <trkpt lat="50.547727" lon="6.354019">
        <ele>0.000000</ele>
        <time>2009-10-13T16:53:40Z</time>
      </trkpt>
      <trkpt lat="50.548348" lon="6.354196">
        <ele>0.000000</ele>
        <time>2009-10-13T16:53:40Z</time>
      </trkpt>
      <trkpt lat="50.547935" lon="6.354201">
        <ele>0.000000</ele>
        <time>2009-10-13T16:53:40Z</time>
      </trkpt>
      <trkpt lat="50.547506" lon="6.354142">
        <ele>0.000000</ele>
        <time>2009-10-13T16:53:40Z</time>
      </trkpt>
      <trkpt lat="50.547114" lon="6.354448">
        <ele>0.000000</ele>
        <time>2009-10-13T16:53:40Z</time>
      </trkpt>
      <trkpt lat="50.547053" lon="6.354631">
        <ele>0.000000</ele>
        <time>2009-10-13T16:53:40Z</time>
      </trkpt>
      <trkpt lat="50.546930" lon="6.354974">
        <ele>0.000000</ele>
        <time>2009-10-13T16:53:40Z</time>
      </trkpt>
      <trkpt lat="50.546770" lon="6.355618">
        <ele>0.000000</ele>
        <time>2009-10-13T16:53:40Z</time>
      </trkpt>
      <trkpt lat="50.546637" lon="6.356159">
        <ele>0.000000</ele>
        <time>2009-10-13T16:53:40Z</time>
      </trkpt>
      <trkpt lat="50.546589" lon="6.356336">
        <ele>0.000000</ele>
        <time>2009-10-13T16:53:40Z</time>
      </trkpt>
      <trkpt lat="50.546483" lon="6.356562">
        <ele>0.000000</ele>
        <time>2009-10-13T16:53:40Z</time>
      </trkpt>
      <trkpt lat="50.546388" lon="6.356739">
        <ele>0.000000</ele>
        <time>2009-10-13T16:53:40Z</time>
      </trkpt>
      <trkpt lat="50.546101" lon="6.357007">
        <ele>0.000000</ele>
        <time>2009-10-13T16:53:40Z</time>
      </trkpt>
      <trkpt lat="50.545812" lon="6.357028">
        <ele>0.000000</ele>
        <time>2009-10-13T16:53:40Z</time>
      </trkpt>
      <trkpt lat="50.545484" lon="6.357066">
        <ele>0.000000</ele>
        <time>2009-10-13T16:53:40Z</time>
      </trkpt>
      <trkpt lat="50.545304" lon="6.357130">
        <ele>0.000000</ele>
        <time>2009-10-13T16:53:40Z</time>
      </trkpt>
      <trkpt lat="50.545174" lon="6.357168">
        <ele>0.000000</ele>
        <time>2009-10-13T16:53:40Z</time>
      </trkpt>
      <trkpt lat="50.545041" lon="6.357222">
        <ele>0.000000</ele>
        <time>2009-10-13T16:53:40Z</time>
      </trkpt>
      <trkpt lat="50.544857" lon="6.357334">
        <ele>0.000000</ele>
        <time>2009-10-13T16:53:40Z</time>
      </trkpt>
      <trkpt lat="50.544688" lon="6.357435">
        <ele>0.000000</ele>
        <time>2009-10-13T16:53:40Z</time>
      </trkpt>
      <trkpt lat="50.544469" lon="6.357602">
        <ele>0.000000</ele>
        <time>2009-10-13T16:53:40Z</time>
      </trkpt>
      <trkpt lat="50.544179" lon="6.357973">
        <ele>0.000000</ele>
        <time>2009-10-13T16:53:40Z</time>
      </trkpt>
      <trkpt lat="50.543933" lon="6.358418">
        <ele>0.000000</ele>
        <time>2009-10-13T16:53:40Z</time>
      </trkpt>
      <trkpt lat="50.543896" lon="6.358659">
        <ele>0.000000</ele>
        <time>2009-10-13T16:53:40Z</time>
      </trkpt>
      <trkpt lat="50.543790" lon="6.359029">
        <ele>0.000000</ele>
        <time>2009-10-13T16:53:40Z</time>
      </trkpt>
      <trkpt lat="50.543732" lon="6.359303">
        <ele>0.000000</ele>
        <time>2009-10-13T16:53:40Z</time>
      </trkpt>
      <trkpt lat="50.543552" lon="6.359469">
        <ele>0.000000</ele>
        <time>2009-10-13T16:53:40Z</time>
      </trkpt>
      <trkpt lat="50.543269" lon="6.359442">
        <ele>0.000000</ele>
        <time>2009-10-13T16:53:40Z</time>
      </trkpt>
      <trkpt lat="50.542965" lon="6.359062">
        <ele>0.000000</ele>
        <time>2009-10-13T16:53:40Z</time>
      </trkpt>
      <trkpt lat="50.542587" lon="6.358627">
        <ele>0.000000</ele>
        <time>2009-10-13T16:53:40Z</time>
      </trkpt>
      <trkpt lat="50.542375" lon="6.358386">
        <ele>0.000000</ele>
        <time>2009-10-13T16:53:40Z</time>
      </trkpt>
      <trkpt lat="50.542035" lon="6.358268">
        <ele>0.000000</ele>
        <time>2009-10-13T16:53:40Z</time>
      </trkpt>
      <trkpt lat="50.541813" lon="6.358316">
        <ele>0.000000</ele>
        <time>2009-10-13T16:53:40Z</time>
      </trkpt>
      <trkpt lat="50.541745" lon="6.358364">
        <ele>0.000000</ele>
        <time>2009-10-13T16:53:40Z</time>
      </trkpt>
      <trkpt lat="50.541932" lon="6.358563">
        <ele>0.000000</ele>
        <time>2009-10-13T16:53:40Z</time>
      </trkpt>
      <trkpt lat="50.542052" lon="6.358767">
        <ele>0.000000</ele>
        <time>2009-10-13T16:53:40Z</time>
      </trkpt>
      <trkpt lat="50.542191" lon="6.359287">
        <ele>0.000000</ele>
        <time>2009-10-13T16:53:40Z</time>
      </trkpt>
      <trkpt lat="50.542219" lon="6.359373">
        <ele>0.000000</ele>
        <time>2009-10-13T16:53:40Z</time>
      </trkpt>
      <trkpt lat="50.542392" lon="6.359764">
        <ele>0.000000</ele>
        <time>2009-10-13T16:53:40Z</time>
      </trkpt>
      <trkpt lat="50.542379" lon="6.359797">
        <ele>0.000000</ele>
        <time>2009-10-13T16:53:40Z</time>
      </trkpt>
      <trkpt lat="50.542181" lon="6.359619">
        <ele>0.000000</ele>
        <time>2009-10-13T16:53:40Z</time>
      </trkpt>
      <trkpt lat="50.542035" lon="6.359560">
        <ele>0.000000</ele>
        <time>2009-10-13T16:53:40Z</time>
      </trkpt>
      <trkpt lat="50.541942" lon="6.359630">
        <ele>0.000000</ele>
        <time>2009-10-13T16:53:40Z</time>
      </trkpt>
      <trkpt lat="50.541912" lon="6.359721">
        <ele>0.000000</ele>
        <time>2009-10-13T16:53:40Z</time>
      </trkpt>
      <trkpt lat="50.541922" lon="6.359990">
        <ele>0.000000</ele>
        <time>2009-10-13T16:53:40Z</time>
      </trkpt>
      <trkpt lat="50.542137" lon="6.360226">
        <ele>0.000000</ele>
        <time>2009-10-13T16:53:40Z</time>
      </trkpt>
      <trkpt lat="50.542280" lon="6.360371">
        <ele>0.000000</ele>
        <time>2009-10-13T16:53:40Z</time>
      </trkpt>
      <trkpt lat="50.542450" lon="6.360553">
        <ele>0.000000</ele>
        <time>2009-10-13T16:53:40Z</time>
      </trkpt>
      <trkpt lat="50.542558" lon="6.360658">
        <ele>0.000000</ele>
        <time>2009-10-13T16:53:40Z</time>
      </trkpt>
      <trkpt lat="50.542641" lon="6.360746">
        <ele>0.000000</ele>
        <time>2009-10-13T16:53:40Z</time>
      </trkpt>
      <trkpt lat="50.542686" lon="6.361165">
        <ele>0.000000</ele>
        <time>2009-10-13T16:53:40Z</time>
      </trkpt>
      <trkpt lat="50.542594" lon="6.361433">
        <ele>0.000000</ele>
        <time>2009-10-13T16:53:40Z</time>
      </trkpt>
      <trkpt lat="50.542601" lon="6.361701">
        <ele>0.000000</ele>
        <time>2009-10-13T16:53:40Z</time>
      </trkpt>
      <trkpt lat="50.542580" lon="6.361910">
        <ele>0.000000</ele>
        <time>2009-10-13T16:53:40Z</time>
      </trkpt>
      <trkpt lat="50.542590" lon="6.362194">
        <ele>0.000000</ele>
        <time>2009-10-13T16:53:40Z</time>
      </trkpt>
      <trkpt lat="50.542737" lon="6.362468">
        <ele>0.000000</ele>
        <time>2009-10-13T16:53:40Z</time>
      </trkpt>
      <trkpt lat="50.542767" lon="6.362516">
        <ele>0.000000</ele>
        <time>2009-10-13T16:53:40Z</time>
      </trkpt>
      <trkpt lat="50.542965" lon="6.362613">
        <ele>0.000000</ele>
        <time>2009-10-13T16:53:40Z</time>
      </trkpt>
      <trkpt lat="50.543166" lon="6.362661">
        <ele>0.000000</ele>
        <time>2009-10-13T16:53:40Z</time>
      </trkpt>
      <trkpt lat="50.543255" lon="6.362779">
        <ele>0.000000</ele>
        <time>2009-10-13T16:53:40Z</time>
      </trkpt>
      <trkpt lat="50.543415" lon="6.363047">
        <ele>0.000000</ele>
        <time>2009-10-13T16:53:40Z</time>
      </trkpt>
      <trkpt lat="50.543633" lon="6.363299">
        <ele>0.000000</ele>
        <time>2009-10-13T16:53:40Z</time>
      </trkpt>
      <trkpt lat="50.543961" lon="6.363616">
        <ele>0.000000</ele>
        <time>2009-10-13T16:53:40Z</time>
      </trkpt>
      <trkpt lat="50.544032" lon="6.363723">
        <ele>0.000000</ele>
        <time>2009-10-13T16:53:40Z</time>
      </trkpt>
      <trkpt lat="50.544135" lon="6.363932">
        <ele>0.000000</ele>
        <time>2009-10-13T16:53:40Z</time>
      </trkpt>
      <trkpt lat="50.544264" lon="6.364254">
        <ele>0.000000</ele>
        <time>2009-10-13T16:53:40Z</time>
      </trkpt>
      <trkpt lat="50.544383" lon="6.364571">
        <ele>0.000000</ele>
        <time>2009-10-13T16:53:40Z</time>
      </trkpt>
      <trkpt lat="50.544472" lon="6.364785">
        <ele>0.000000</ele>
        <time>2009-10-13T16:53:40Z</time>
      </trkpt>
      <trkpt lat="50.544581" lon="6.365064">
        <ele>0.000000</ele>
        <time>2009-10-13T16:53:40Z</time>
      </trkpt>
      <trkpt lat="50.544714" lon="6.365477">
        <ele>0.000000</ele>
        <time>2009-10-13T16:53:40Z</time>
      </trkpt>
      <trkpt lat="50.544809" lon="6.365885">
        <ele>0.000000</ele>
        <time>2009-10-13T16:53:40Z</time>
      </trkpt>
      <trkpt lat="50.544891" lon="6.365864">
        <ele>0.000000</ele>
        <time>2009-10-13T16:53:40Z</time>
      </trkpt>
      <trkpt lat="50.544963" lon="6.365681">
        <ele>0.000000</ele>
        <time>2009-10-13T16:53:40Z</time>
      </trkpt>
      <trkpt lat="50.545072" lon="6.365440">
        <ele>0.000000</ele>
        <time>2009-10-13T16:53:40Z</time>
      </trkpt>
      <trkpt lat="50.545205" lon="6.365188">
        <ele>0.000000</ele>
        <time>2009-10-13T16:53:40Z</time>
      </trkpt>
      <trkpt lat="50.545249" lon="6.365070">
        <ele>0.000000</ele>
        <time>2009-10-13T16:53:40Z</time>
      </trkpt>
      <trkpt lat="50.545416" lon="6.364812">
        <ele>0.000000</ele>
        <time>2009-10-13T16:53:40Z</time>
      </trkpt>
      <trkpt lat="50.545829" lon="6.364421">
        <ele>0.000000</ele>
        <time>2009-10-13T16:53:40Z</time>
      </trkpt>
      <trkpt lat="50.546037" lon="6.364324">
        <ele>0.000000</ele>
        <time>2009-10-13T16:53:40Z</time>
      </trkpt>
      <trkpt lat="50.546381" lon="6.364265">
        <ele>0.000000</ele>
        <time>2009-10-13T16:53:40Z</time>
      </trkpt>
      <trkpt lat="50.546763" lon="6.364174">
        <ele>0.000000</ele>
        <time>2009-10-13T16:53:40Z</time>
      </trkpt>
      <trkpt lat="50.547049" lon="6.364115">
        <ele>0.000000</ele>
        <time>2009-10-13T16:53:40Z</time>
      </trkpt>
      <trkpt lat="50.547319" lon="6.364061">
        <ele>0.000000</ele>
        <time>2009-10-13T16:53:40Z</time>
      </trkpt>
      <trkpt lat="50.547632" lon="6.363986">
        <ele>0.000000</ele>
        <time>2009-10-13T16:53:40Z</time>
      </trkpt>
      <trkpt lat="50.547980" lon="6.363906">
        <ele>0.000000</ele>
        <time>2009-10-13T16:53:40Z</time>
      </trkpt>
      <trkpt lat="50.548092" lon="6.363906">
        <ele>0.000000</ele>
        <time>2009-10-13T16:53:40Z</time>
      </trkpt>
      <trkpt lat="50.548450" lon="6.363911">
        <ele>0.000000</ele>
        <time>2009-10-13T16:53:40Z</time>
      </trkpt>
      <trkpt lat="50.549009" lon="6.363702">
        <ele>0.000000</ele>
        <time>2009-10-13T16:53:40Z</time>
      </trkpt>
      <trkpt lat="50.549323" lon="6.363578">
        <ele>0.000000</ele>
        <time>2009-10-13T16:53:40Z</time>
      </trkpt>
      <trkpt lat="50.549384" lon="6.363326">
        <ele>0.000000</ele>
        <time>2009-10-13T16:53:40Z</time>
      </trkpt>
      <trkpt lat="50.549234" lon="6.362704">
        <ele>0.000000</ele>
        <time>2009-10-13T16:53:40Z</time>
      </trkpt>
      <trkpt lat="50.549163" lon="6.362227">
        <ele>0.000000</ele>
        <time>2009-10-13T16:53:40Z</time>
      </trkpt>
      <trkpt lat="50.549098" lon="6.361798">
        <ele>0.000000</ele>
        <time>2009-10-13T16:53:40Z</time>
      </trkpt>
      <trkpt lat="50.549036" lon="6.361481">
        <ele>0.000000</ele>
        <time>2009-10-13T16:53:40Z</time>
      </trkpt>
      <trkpt lat="50.549033" lon="6.360971">
        <ele>0.000000</ele>
        <time>2009-10-13T16:53:40Z</time>
      </trkpt>
      <trkpt lat="50.548883" lon="6.360312">
        <ele>0.000000</ele>
        <time>2009-10-13T16:53:40Z</time>
      </trkpt>
      <trkpt lat="50.548702" lon="6.359920">
        <ele>0.000000</ele>
        <time>2009-10-13T16:53:40Z</time>
      </trkpt>
      <trkpt lat="50.548389" lon="6.359265">
        <ele>0.000000</ele>
        <time>2009-10-13T16:53:40Z</time>
      </trkpt>
      <trkpt lat="50.548150" lon="6.359046">
        <ele>0.000000</ele>
        <time>2009-10-13T16:53:40Z</time>
      </trkpt>
      <trkpt lat="50.548120" lon="6.358788">
        <ele>0.000000</ele>
        <time>2009-10-13T16:53:40Z</time>
      </trkpt>
      <trkpt lat="50.548181" lon="6.358632">
        <ele>0.000000</ele>
        <time>2009-10-13T16:53:40Z</time>
      </trkpt>
      <trkpt lat="50.548195" lon="6.358096">
        <ele>0.000000</ele>
        <time>2009-10-13T16:53:40Z</time>
      </trkpt>
      <trkpt lat="50.548191" lon="6.357522">
        <ele>0.000000</ele>
        <time>2009-10-13T16:53:40Z</time>
      </trkpt>
      <trkpt lat="50.548181" lon="6.357259">
        <ele>0.000000</ele>
        <time>2009-10-13T16:53:40Z</time>
      </trkpt>
      <trkpt lat="50.548178" lon="6.356900">
        <ele>0.000000</ele>
        <time>2009-10-13T16:53:40Z</time>
      </trkpt>
      <trkpt lat="50.548126" lon="6.356481">
        <ele>0.000000</ele>
        <time>2009-10-13T16:53:40Z</time>
      </trkpt>
      <trkpt lat="50.548559" lon="6.356385">
        <ele>0.000000</ele>
        <time>2009-10-13T16:53:40Z</time>
      </trkpt>
      <trkpt lat="50.548549" lon="6.356562">
        <ele>0.000000</ele>
        <time>2009-10-13T16:53:40Z</time>
      </trkpt>
      <trkpt lat="50.548665" lon="6.357324">
        <ele>0.000000</ele>
        <time>2009-10-13T16:53:40Z</time>
      </trkpt>
      <trkpt lat="50.548918" lon="6.357621">
        <ele>0.000000</ele>
        <time>2009-10-13T16:53:40Z</time>
      </trkpt>
      <trkpt lat="50.548948" lon="6.357678">
        <ele>0.000000</ele>
        <time>2009-10-13T16:53:40Z</time>
      </trkpt>
      <trkpt lat="50.548985" lon="6.357935">
        <ele>0.000000</ele>
        <time>2009-10-13T16:53:40Z</time>
      </trkpt>
      <trkpt lat="50.549428" lon="6.359013">
        <ele>0.000000</ele>
        <time>2009-10-13T16:53:40Z</time>
      </trkpt>
      <trkpt lat="50.549524" lon="6.359448">
        <ele>0.000000</ele>
        <time>2009-10-13T16:53:40Z</time>
      </trkpt>
      <trkpt lat="50.549548" lon="6.359829">
        <ele>0.000000</ele>
        <time>2009-10-13T16:53:40Z</time>
      </trkpt>
      <trkpt lat="50.549483" lon="6.359984">
        <ele>0.000000</ele>
        <time>2009-10-13T16:53:40Z</time>
      </trkpt>
      <trkpt lat="50.549517" lon="6.360301">
        <ele>0.000000</ele>
        <time>2009-10-13T16:53:40Z</time>
      </trkpt>
      <trkpt lat="50.549602" lon="6.360408">
        <ele>0.000000</ele>
        <time>2009-10-13T16:53:40Z</time>
      </trkpt>
      <trkpt lat="50.549745" lon="6.360252">
        <ele>0.000000</ele>
        <time>2009-10-13T16:53:40Z</time>
      </trkpt>
      <trkpt lat="50.549977" lon="6.360392">
        <ele>0.000000</ele>
        <time>2009-10-13T16:53:40Z</time>
      </trkpt>
      <trkpt lat="50.550039" lon="6.360226">
        <ele>0.000000</ele>
        <time>2009-10-13T16:53:40Z</time>
      </trkpt>
      <trkpt lat="50.550124" lon="6.360006">
        <ele>0.000000</ele>
        <time>2009-10-13T16:53:40Z</time>
      </trkpt>
      <trkpt lat="50.550294" lon="6.359839">
        <ele>0.000000</ele>
        <time>2009-10-13T16:53:40Z</time>
      </trkpt>
      <trkpt lat="50.550659" lon="6.359872">
        <ele>0.000000</ele>
        <time>2009-10-13T16:53:40Z</time>
      </trkpt>
      <trkpt lat="50.550785" lon="6.360092">
        <ele>0.000000</ele>
        <time>2009-10-13T16:53:40Z</time>
      </trkpt>
      <trkpt lat="50.551180" lon="6.360075">
        <ele>0.000000</ele>
        <time>2009-10-13T16:53:40Z</time>
      </trkpt>
      <trkpt lat="50.551269" lon="6.360338">
        <ele>0.000000</ele>
        <time>2009-10-13T16:53:40Z</time>
      </trkpt>
      <trkpt lat="50.551555" lon="6.360231">
        <ele>0.000000</ele>
        <time>2009-10-13T16:53:40Z</time>
      </trkpt>
      <trkpt lat="50.551664" lon="6.360081">
        <ele>0.000000</ele>
        <time>2009-10-13T16:53:40Z</time>
      </trkpt>
      <trkpt lat="50.551835" lon="6.360102">
        <ele>0.000000</ele>
        <time>2009-10-13T16:53:40Z</time>
      </trkpt>
      <trkpt lat="50.552005" lon="6.360059">
        <ele>0.000000</ele>
        <time>2009-10-13T16:53:40Z</time>
      </trkpt>
      <trkpt lat="50.552056" lon="6.359898">
        <ele>0.000000</ele>
        <time>2009-10-13T16:53:40Z</time>
      </trkpt>
      <trkpt lat="50.552247" lon="6.359850">
        <ele>0.000000</ele>
        <time>2009-10-13T16:53:40Z</time>
      </trkpt>
      <trkpt lat="50.552469" lon="6.359587">
        <ele>0.000000</ele>
        <time>2009-10-13T16:53:40Z</time>
      </trkpt>
      <trkpt lat="50.552830" lon="6.359931">
        <ele>0.000000</ele>
        <time>2009-10-13T16:53:40Z</time>
      </trkpt>
      <trkpt lat="50.552909" lon="6.359861">
        <ele>0.000000</ele>
        <time>2009-10-13T16:53:40Z</time>
      </trkpt>
      <trkpt lat="50.553266" lon="6.360124">
        <ele>0.000000</ele>
        <time>2009-10-13T16:53:40Z</time>
      </trkpt>
      <trkpt lat="50.553137" lon="6.360601">
        <ele>0.000000</ele>
        <time>2009-10-13T16:53:40Z</time>
      </trkpt>
      <trkpt lat="50.553406" lon="6.360789">
        <ele>0.000000</ele>
        <time>2009-10-13T16:53:40Z</time>
      </trkpt>
      <trkpt lat="50.553573" lon="6.361111">
        <ele>0.000000</ele>
        <time>2009-10-13T16:53:40Z</time>
      </trkpt>
      <trkpt lat="50.553808" lon="6.361384">
        <ele>0.000000</ele>
        <time>2009-10-13T16:53:40Z</time>
      </trkpt>
      <trkpt lat="50.554224" lon="6.361095">
        <ele>0.000000</ele>
        <time>2009-10-13T16:53:40Z</time>
      </trkpt>
      <trkpt lat="50.554449" lon="6.360955">
        <ele>0.000000</ele>
        <time>2009-10-13T16:53:40Z</time>
      </trkpt>
      <trkpt lat="50.554630" lon="6.360843">
        <ele>0.000000</ele>
        <time>2009-10-13T16:53:40Z</time>
      </trkpt>
      <trkpt lat="50.554701" lon="6.360741">
        <ele>0.000000</ele>
        <time>2009-10-13T16:53:40Z</time>
      </trkpt>
      <trkpt lat="50.554960" lon="6.360741">
        <ele>0.000000</ele>
        <time>2009-10-13T16:53:40Z</time>
      </trkpt>
      <trkpt lat="50.555311" lon="6.360746">
        <ele>0.000000</ele>
        <time>2009-10-13T16:53:40Z</time>
      </trkpt>
      <trkpt lat="50.555761" lon="6.360483">
        <ele>0.000000</ele>
        <time>2009-10-13T16:53:40Z</time>
      </trkpt>
      <trkpt lat="50.555938" lon="6.360285">
        <ele>0.000000</ele>
        <time>2009-10-13T16:53:40Z</time>
      </trkpt>
      <trkpt lat="50.556180" lon="6.360097">
        <ele>0.000000</ele>
        <time>2009-10-13T16:53:40Z</time>
      </trkpt>
      <trkpt lat="50.556422" lon="6.359856">
        <ele>0.000000</ele>
        <time>2009-10-13T16:53:40Z</time>
      </trkpt>
      <trkpt lat="50.556746" lon="6.359582">
        <ele>0.000000</ele>
        <time>2009-10-13T16:53:40Z</time>
      </trkpt>
      <trkpt lat="50.557073" lon="6.359394">
        <ele>0.000000</ele>
        <time>2009-10-13T16:53:40Z</time>
      </trkpt>
      <trkpt lat="50.557390" lon="6.359174">
        <ele>0.000000</ele>
        <time>2009-10-13T16:53:40Z</time>
      </trkpt>
      <trkpt lat="50.557619" lon="6.358986">
        <ele>0.000000</ele>
        <time>2009-10-13T16:53:40Z</time>
      </trkpt>
      <trkpt lat="50.557796" lon="6.358826">
        <ele>0.000000</ele>
        <time>2009-10-13T16:53:40Z</time>
      </trkpt>
      <trkpt lat="50.558000" lon="6.358702">
        <ele>0.000000</ele>
        <time>2009-10-13T16:53:40Z</time>
      </trkpt>
      <trkpt lat="50.558358" lon="6.358488">
        <ele>0.000000</ele>
        <time>2009-10-13T16:53:40Z</time>
      </trkpt>
      <trkpt lat="50.558665" lon="6.358311">
        <ele>0.000000</ele>
        <time>2009-10-13T16:53:40Z</time>
      </trkpt>
      <trkpt lat="50.558886" lon="6.358069">
        <ele>0.000000</ele>
        <time>2009-10-13T16:53:40Z</time>
      </trkpt>
      <trkpt lat="50.559074" lon="6.357865">
        <ele>0.000000</ele>
        <time>2009-10-13T16:53:40Z</time>
      </trkpt>
      <trkpt lat="50.559237" lon="6.357704">
        <ele>0.000000</ele>
        <time>2009-10-13T16:53:40Z</time>
      </trkpt>
      <trkpt lat="50.559483" lon="6.357501">
        <ele>0.000000</ele>
        <time>2009-10-13T16:53:40Z</time>
      </trkpt>
      <trkpt lat="50.559561" lon="6.357377">
        <ele>0.000000</ele>
        <time>2009-10-13T16:53:40Z</time>
      </trkpt>
      <trkpt lat="50.559820" lon="6.356792">
        <ele>0.000000</ele>
        <time>2009-10-13T16:53:40Z</time>
      </trkpt>
      <trkpt lat="50.560035" lon="6.356347">
        <ele>0.000000</ele>
        <time>2009-10-13T16:53:40Z</time>
      </trkpt>
      <trkpt lat="50.560110" lon="6.356245">
        <ele>0.000000</ele>
        <time>2009-10-13T16:53:40Z</time>
      </trkpt>
      <trkpt lat="50.560171" lon="6.356216">
        <ele>0.000000</ele>
        <time>2009-10-13T16:53:40Z</time>
      </trkpt>
      <trkpt lat="50.560284" lon="6.356240">
        <ele>0.000000</ele>
        <time>2009-10-13T16:53:40Z</time>
      </trkpt>
      <trkpt lat="50.560389" lon="6.356347">
        <ele>0.000000</ele>
        <time>2009-10-13T16:53:40Z</time>
      </trkpt>
      <trkpt lat="50.560478" lon="6.356642">
        <ele>0.000000</ele>
        <time>2009-10-13T16:53:40Z</time>
      </trkpt>
      <trkpt lat="50.560601" lon="6.357238">
        <ele>0.000000</ele>
        <time>2009-10-13T16:53:40Z</time>
      </trkpt>
      <trkpt lat="50.560624" lon="6.357409">
        <ele>0.000000</ele>
        <time>2009-10-13T16:53:40Z</time>
      </trkpt>
      <trkpt lat="50.560669" lon="6.357651">
        <ele>0.000000</ele>
        <time>2009-10-13T16:53:40Z</time>
      </trkpt>
      <trkpt lat="50.561016" lon="6.358767">
        <ele>0.000000</ele>
        <time>2009-10-13T16:53:40Z</time>
      </trkpt>
      <trkpt lat="50.561207" lon="6.359287">
        <ele>0.000000</ele>
        <time>2009-10-13T16:53:40Z</time>
      </trkpt>
      <trkpt lat="50.561395" lon="6.359775">
        <ele>0.000000</ele>
        <time>2009-10-13T16:53:40Z</time>
      </trkpt>
      <trkpt lat="50.561596" lon="6.360285">
        <ele>0.000000</ele>
        <time>2009-10-13T16:53:40Z</time>
      </trkpt>
      <trkpt lat="50.561732" lon="6.360526">
        <ele>0.000000</ele>
        <time>2009-10-13T16:53:40Z</time>
      </trkpt>
      <trkpt lat="50.561787" lon="6.360746">
        <ele>0.000000</ele>
        <time>2009-10-13T16:53:40Z</time>
      </trkpt>
      <trkpt lat="50.561838" lon="6.360923">
        <ele>0.000000</ele>
        <time>2009-10-13T16:53:40Z</time>
      </trkpt>
      <trkpt lat="50.561817" lon="6.361122">
        <ele>0.000000</ele>
        <time>2009-10-13T16:53:40Z</time>
      </trkpt>
      <trkpt lat="50.561868" lon="6.361272">
        <ele>0.000000</ele>
        <time>2009-10-13T16:53:40Z</time>
      </trkpt>
      <trkpt lat="50.561991" lon="6.361320">
        <ele>0.000000</ele>
        <time>2009-10-13T16:53:40Z</time>
      </trkpt>
      <trkpt lat="50.562114" lon="6.361390">
        <ele>0.000000</ele>
        <time>2009-10-13T16:53:40Z</time>
      </trkpt>
      <trkpt lat="50.562253" lon="6.361524">
        <ele>0.000000</ele>
        <time>2009-10-13T16:53:40Z</time>
      </trkpt>
      <trkpt lat="50.562768" lon="6.362194">
        <ele>0.000000</ele>
        <time>2009-10-13T16:53:40Z</time>
      </trkpt>
      <trkpt lat="50.563115" lon="6.362640">
        <ele>0.000000</ele>
        <time>2009-10-13T16:53:40Z</time>
      </trkpt>
      <trkpt lat="50.563293" lon="6.362892">
        <ele>0.000000</ele>
        <time>2009-10-13T16:53:40Z</time>
      </trkpt>
      <trkpt lat="50.563436" lon="6.363101">
        <ele>0.000000</ele>
        <time>2009-10-13T16:53:40Z</time>
      </trkpt>
      <trkpt lat="50.563719" lon="6.363541">
        <ele>0.000000</ele>
        <time>2009-10-13T16:53:40Z</time>
      </trkpt>
      <trkpt lat="50.563892" lon="6.363809">
        <ele>0.000000</ele>
        <time>2009-10-13T16:53:40Z</time>
      </trkpt>
      <trkpt lat="50.564001" lon="6.363970">
        <ele>0.000000</ele>
        <time>2009-10-13T16:53:40Z</time>
      </trkpt>
      <trkpt lat="50.564131" lon="6.364179">
        <ele>0.000000</ele>
        <time>2009-10-13T16:53:40Z</time>
      </trkpt>
      <trkpt lat="50.564267" lon="6.364386">
        <ele>0.000000</ele>
        <time>2009-10-13T16:53:40Z</time>
      </trkpt>
      <trkpt lat="50.564417" lon="6.364667">
        <ele>0.000000</ele>
        <time>2009-10-13T16:53:40Z</time>
      </trkpt>
      <trkpt lat="50.564955" lon="6.365713">
        <ele>0.000000</ele>
        <time>2009-10-13T16:53:40Z</time>
      </trkpt>
      <trkpt lat="50.565075" lon="6.365950">
        <ele>0.000000</ele>
        <time>2009-10-13T16:53:40Z</time>
      </trkpt>
      <trkpt lat="50.565283" lon="6.366432">
        <ele>0.000000</ele>
        <time>2009-10-13T16:53:40Z</time>
      </trkpt>
      <trkpt lat="50.565470" lon="6.366845">
        <ele>0.000000</ele>
        <time>2009-10-13T16:53:40Z</time>
      </trkpt>
      <trkpt lat="50.565654" lon="6.367044">
        <ele>0.000000</ele>
        <time>2009-10-13T16:53:40Z</time>
      </trkpt>
      <trkpt lat="50.565477" lon="6.366577">
        <ele>0.000000</ele>
        <time>2009-10-13T16:53:40Z</time>
      </trkpt>
      <trkpt lat="50.565272" lon="6.365590">
        <ele>0.000000</ele>
        <time>2009-10-13T16:53:40Z</time>
      </trkpt>
      <trkpt lat="50.565228" lon="6.365263">
        <ele>0.000000</ele>
        <time>2009-10-13T16:53:40Z</time>
      </trkpt>
      <trkpt lat="50.565293" lon="6.365118">
        <ele>0.000000</ele>
        <time>2009-10-13T16:53:40Z</time>
      </trkpt>
      <trkpt lat="50.565732" lon="6.364587">
        <ele>0.000000</ele>
        <time>2009-10-13T16:53:40Z</time>
      </trkpt>
      <trkpt lat="50.565535" lon="6.364190">
        <ele>0.000000</ele>
        <time>2009-10-13T16:53:40Z</time>
      </trkpt>
      <trkpt lat="50.565337" lon="6.363761">
        <ele>0.000000</ele>
        <time>2009-10-13T16:53:40Z</time>
      </trkpt>
      <trkpt lat="50.565252" lon="6.363525">
        <ele>0.000000</ele>
        <time>2009-10-13T16:53:40Z</time>
      </trkpt>
      <trkpt lat="50.565167" lon="6.363310">
        <ele>0.000000</ele>
        <time>2009-10-13T16:53:40Z</time>
      </trkpt>
      <trkpt lat="50.565099" lon="6.363128">
        <ele>0.000000</ele>
        <time>2009-10-13T16:53:40Z</time>
      </trkpt>
      <trkpt lat="50.565020" lon="6.362924">
        <ele>0.000000</ele>
        <time>2009-10-13T16:53:40Z</time>
      </trkpt>
      <trkpt lat="50.564915" lon="6.362431">
        <ele>0.000000</ele>
        <time>2009-10-13T16:53:40Z</time>
      </trkpt>
      <trkpt lat="50.564911" lon="6.362312">
        <ele>0.000000</ele>
        <time>2009-10-13T16:53:40Z</time>
      </trkpt>
      <trkpt lat="50.564898" lon="6.362012">
        <ele>0.000000</ele>
        <time>2009-10-13T16:53:40Z</time>
      </trkpt>
    </trkseg>
  </trk>

</gpx>
